Hourly Data Report for October 09, 2006

ALERT CLIMATE
NUNAVUT

82°30'00.000" N
62°20'00.000" W
65.40 m
2400305
71355
ZLT

Download Data

Hourly Data (October 2006)
Hourly Data Report for October 9, 2006
TIME
LST
Temp Definition
°C
Dew Point Definition
°C
Rel Hum Definition
%
Precip. Amount Definition
mm

Wind Dir Definition
10's deg

Wind Spd Definition
km/h
Visibility Definition
km
Stn Press Definition
kPa
Hmdx Definition


Wind Chill Definition


Weather Definition


00:00 -16.2 -17.7 88   5 2   101.50   -18 LegendNANA
01:00 -16.1 -17.5 89     0   101.49     LegendNANA
02:00 -16.1 -17.5 89   36 2   101.51   -18 LegendNANA
03:00 -16.3 -17.8 88   32 2   101.55   -18 LegendNANA
04:00 -16.7 -18.2 88   33 2   101.56   -18 LegendNANA
05:00 -17.3 -18.8 88   30 4   101.59   -20 LegendNANA
06:00 -17.6 -19.2 87   26 6   101.61   -22 LegendNANA
07:00 -17.5 -19.1 87   29 4   101.64   -21 LegendNANA
08:00 -17.9 -19.5 87   29 4   101.68   -21 LegendNANA
09:00 -18.1 -19.7 87   28 4   101.70   -21 LegendNANA
10:00 -17.8 -19.4 87     0   101.71     LegendNANA
11:00 -19.2 -21.0 86   23 2   101.70   -21 LegendNANA
12:00 -21.4 -23.4 84   28 4   101.70   -25 LegendNANA
13:00 -21.3 -23.3 84   28 2   101.73   -23 LegendNANA
14:00 -21.9 -24.0 83   28 4   101.73   -26 LegendNANA
15:00 -20.8 -22.7 85   28 2   101.78   -23 LegendNANA
16:00 -21.2 -23.2 84     0   101.84     LegendNANA
17:00 -21.2 -23.2 84   28 4   101.86   -25 LegendNANA
18:00 -19.8 -21.6 86   28 4   101.91   -23 LegendNANA
19:00 -17.7 -19.3 87   28 4   101.94   -21 LegendNANA
20:00 -16.3 -17.7 89   29 4   101.97   -19 LegendNANA
21:00 -17.0 -18.5 88     0   102.00     LegendNANA
22:00 -18.0 -19.6 87   9 2   102.02   -20 LegendNANA
23:00 -17.6 -19.2 87     0   102.06     LegendNANA

Notes on Data Quality.

Legend

  • E = Estimated
  • M = Missing
  • NA = Not Available*
  • [empty] = Indicates an unobserved value
Date modified: